Kingsville

*Note: All times are displayed in the local standard time of the station location.
**Rain - Equipment is designed to accurately record liquid precipitation; under conditions when precipitation is not in liquid form, the data displayed may not properly reflect rainfall values.

Date Max Temp
(°C)
Min Temp
(°C)
Avg Temp
(°C)
Rain (mm) Avg RH (%)
Sat, Dec 16, 2017 0.6 -7.1 -2.2 0.0 82.4
Fri, Dec 15, 2017 -2.8 -18.3 -5.4 0.0 75.0
Thu, Dec 14, 2017 -6.7 -17.8 -10.7 0.0 78.4
Wed, Dec 13, 2017 -4.5 -13.7 -7.7 0.0 84.2
Tue, Dec 12, 2017 -1.3 -13.0 -7.1 0.0 70.5
Mon, Dec 11, 2017 0.3 -8.2 -3.0 0.0 84.0
Sun, Dec 10, 2017 -1.8 -6.0 -3.4 0.0 76.9
DateTime Avg Temp (°C) Rain (mm) RH (%)
Sun, Dec 17, 2017 17:00 0.9 0.0 88.5
Sun, Dec 17, 2017 16:00 1.1 0.0 85.0
Sun, Dec 17, 2017 15:00 1.1 0.0 83.3
Sun, Dec 17, 2017 14:00 1.2 0.0 83.0
Sun, Dec 17, 2017 13:00 1.5 0.0 82.3
Sun, Dec 17, 2017 12:00 1.3 0.0 85.0
Sun, Dec 17, 2017 11:00 -0.9 0.0 92.0
Sun, Dec 17, 2017 10:00 -2.1 0.0 92.0
Sun, Dec 17, 2017 09:00 -2.8 0.0 91.8
Sun, Dec 17, 2017 08:00 -3.4 0.0 91.8
Sun, Dec 17, 2017 07:00 -4.1 0.0 89.3
Sun, Dec 17, 2017 06:00 -4.5 0.0 87.3
Sun, Dec 17, 2017 05:00 -6.3 0.0 87.0
Sun, Dec 17, 2017 04:00 -7.0 0.0 85.0
Sun, Dec 17, 2017 03:00 -7.2 0.0 84.0
Sun, Dec 17, 2017 02:00 -7.6 0.0 86.5
Sun, Dec 17, 2017 01:00 -7.3 0.0 89.8
Sun, Dec 17, 2017 00:00 -6.9 0.0 91.8
Sat, Dec 16, 2017 23:00 -6.2 0.0 92.0
Sat, Dec 16, 2017 22:00 -5.2 0.0 88.8
Sat, Dec 16, 2017 21:00 -3.9 0.0 83.8
Sat, Dec 16, 2017 20:00 -3.7 0.0 84.0
Sat, Dec 16, 2017 19:00 -3.5 0.0 83.8
Sat, Dec 16, 2017 18:00 -3.3 0.0 85.0
Sat, Dec 16, 2017 17:00 -3.1 0.0 84.5
Sat, Dec 16, 2017 16:00 -2.6 0.0 82.8
Sat, Dec 16, 2017 15:00 -2.8 0.0 85.0
Sat, Dec 16, 2017 14:00 -2.4 0.0 88.5
Sat, Dec 16, 2017 13:00 -1.3 0.0 88.5
Sat, Dec 16, 2017 12:00 0.5 0.0 80.0
Sat, Dec 16, 2017 11:00 0.5 0.0 75.8
Sat, Dec 16, 2017 10:00 0.3 0.0 75.0
Sat, Dec 16, 2017 09:00 0.2 0.0 74.0
Sat, Dec 16, 2017 08:00 -0.2 0.0 77.0
Sat, Dec 16, 2017 07:00 -0.4 0.0 77.5
Sat, Dec 16, 2017 06:00 -0.5 0.0 76.0
Sat, Dec 16, 2017 05:00 -1.5 0.0 83.5
Sat, Dec 16, 2017 04:00 -2.1 0.0 88.3
Sat, Dec 16, 2017 03:00 -1.8 0.0 79.3
Sat, Dec 16, 2017 02:00 -1.5 0.0 74.8
Sat, Dec 16, 2017 01:00 -2.3 0.0 77.5
Sat, Dec 16, 2017 00:00 -2.9 0.0 79.5
Fri, Dec 15, 2017 23:00 -3.2 0.0 73.0
Fri, Dec 15, 2017 22:00 -3.2 0.0 70.5
Fri, Dec 15, 2017 21:00 -3.5 0.0 69.8
Fri, Dec 15, 2017 20:00 -3.5 0.0 64.8
Fri, Dec 15, 2017 19:00 -3.5 0.0 70.0
Fri, Dec 15, 2017 18:00 -3.6 0.0 70.5


asterix Register now to access more data! asterix